Hors Challenge

La Triplette Sport Nature - Hamoir (7.00 km)

vendredi 03 juillet 2020

Vous pouvez trouver Le classement original sur : https://challenge-verviers.lavenir.net/
 
LA TRIPLETTE SPORT NATURE - HAMOIR
DISTANCE : 6.98 km
vendredi 03 juillet 2020
 
Place dos NOM Catégorie Pl/cat temps temps/km Vitesse
01:00:00              
1 1075 VERLUYTEN FRANKIE SENIOR H 1 0:25:04 03:36 16.70
2 1073 VRANCKEN JO VETERAN 1 1 0:25:05 03:36 16.69
3 1074 STULENS BENNY VÉTÉRAN 2 1 0:25:05 03:36 16.69
4 1028 DARDENNE THÉODORE ESPOIR GARÇON 1 0:25:33 03:40 16.38
5 1029 BARTIAUX NOÉ SENIOR H 2 0:25:34 03:40 16.37
6 1027 DEWEZ MAXIME ESPOIR GARÇON 2 0:25:35 03:40 16.36
7 1041 HENRY MARC VÉTÉRAN 2 2 0:27:22 03:55 15.30
8 1040 LAMBERTY HELORI SENIOR H 3 0:27:23 03:55 15.29
9 1042 DE VOS NICOLAS SENIOR H 4 0:27:23 03:55 15.29
10 1009 BRUYÈRE DIDIER VETERAN 1 2 0:27:40 03:58 15.13
11 1011 BOCLINVILLE GAUTHIER SENIOR H 5 0:27:41 03:58 15.12
12 1010 DELORME DIMITRI VETERAN 1 3 0:27:42 03:58 15.11
13 1007 VAN DE PUTT EDDY XXX   0:27:48 03:59 15.06
14 1006 BRONLET BENOIT XXX   0:27:48 03:59 15.06
15 1008 DELCOUR PHILIPPE SENIOR H 6 0:27:49 03:59 15.05
16 1025 DEMONTY NICOLAS SENIOR H 7 0:28:03 04:01 14.92
17 1024 DEMONTY LOIC SENIOR H 8 0:28:03 04:01 14.92
18 1026 ROMARIC ANGENOT SENIOR H 9 0:28:05 04:02 14.91
19 1060 THIRY DAMIEN VETERAN 1 4 0:29:47 04:16 14.06
20 1058 RAUSIN NICOLAS SENIOR H 10 0:29:48 04:16 14.05
21 1059 ROUSELLE ANTOINE SENIOR H 11 0:29:49 04:16 14.04
22 1050 NEUTELEERS ERIC VETERAN 3 1 0:29:58 04:18 13.97
23 1049 MOUSSEBOIS ERIC SENIOR H 12 0:29:58 04:18 13.97
24 1051 HAOUCHINE HASSN SENIOR H 13 0:29:59 04:18 13.96
25 1046 MORAY JULIEN SENIOR H 14 0:30:34 04:23 13.70
26 1048 HURARD GERALD SENIOR H 15 0:30:34 04:23 13.70
27 1047 LIÉGEOIS SYLVAIN SENIOR H 16 0:30:35 04:23 13.69
28 1066 HENNEN OLIVIER SENIOR H 17 0:31:54 04:34 13.12
29 1064 ROSU ADELINE DAME 1 0:31:54 04:34 13.12
30 1070 TOUSSAINT FR FRANK VÉTÉRAN 2 3 0:32:17 04:38 12.97
31 1072 ROSSI STEPHANE SENIOR H 18 0:33:12 04:46 12.61
32 1003 BALSAN LUC VÉTÉRAN 2 4 0:34:00 04:52 12.31
33 1005 JULIN PASCAL SENIOR H 19 0:34:01 04:53 12.31
34 1004 TON BALSAN SENIOR H 20 0:34:02 04:53 12.30
35 1000 ARINCON TOR NICOLAS SENIOR H 21 0:34:13 04:54 12.23
36 1001 ARINCON TOR SÉBASTIEN SENIOR H 22 0:34:14 04:54 12.23
37 1002 VELZ BENJAMIN SENIOR H 23 0:34:14 04:54 12.23
38 1012 BYNENS NICOLAS VETERAN 3 2 0:34:20 04:55 12.19
39 1014 INCONU INCONU SENIOR H 24 0:34:21 04:55 12.19
40 1023 DENIS FRANÇOIS ESPOIR GARÇON 3 0:34:49 04:59 12.02
41 1021 DEBROUX SEBASTIEN VETERAN 1 5 0:34:50 05:00 12.02
42 1022 CABAY JEAN-MARC VÉTÉRAN 2 5 0:34:50 05:00 12.02
43 1019 DE CECCO JONATHAN SENIOR H 25 0:35:23 05:04 11.83
44 1018 DE CECCO MICHAEL VETERAN 1 6 0:35:24 05:04 11.83
45 1020 DE CECCO FREDERIC SENIOR H 26 0:35:25 05:05 11.82
46 1032 DEVOS SERGE SENIOR H 27 0:35:32 05:06 11.78
47 1031 SIMONIS ALAIN VÉTÉRAN 2 6 0:35:33 05:06 11.78
48 1030 GHARBI BRAHIM SENIOR H 28 0:35:33 05:06 11.78
49 1067 SOLHEID ULRIC SENIOR H 29 0:38:28 05:31 10.88
50 1068 EUGENE SÉBASTIEN VETERAN 1 7 0:38:29 05:31 10.88
51 1053 BERTIER MANU VÉTÉRAN 2 7 0:39:38 05:41 10.56
52 1054 LUKAS OLIVIER SENIOR H 30 0:39:39 05:41 10.56
53 1052 NELISSEN DIDIER VETERAN 1 8 0:39:39 05:41 10.56
54 1043 LEYENS PIERRE ESPOIR GARÇON 4 0:40:37 05:49 10.31
55 1045 GALASYKA MATHYS VÉTÉRAN 2 8 0:40:39 05:50 10.30
56 1044 LEYENS THIBAUT ESPOIR GARÇON 5 0:40:39 05:50 10.30
57 1078 FAGNOULLE CELINE AINÉE 1 1 0:40:54 05:52 10.24
58 1077 ARAMBATZIS FABIAN VETERAN 1 9 0:40:55 05:52 10.23
59 1076 DEMARTEAU LAETITIA AINÉE 1 2 0:40:57 05:52 10.22
60 1034 HENROT JEAN HUGHES VETERAN 1 10 0:41:11 05:54 10.16
61 1035 TATON JEAN PHILIPPE VETERAN 1 11 0:41:12 05:54 10.16
62 1036 HERIN FREDERIC SENIOR H 31 0:41:12 05:54 10.16
63 1037 HÉRIN ROMANE ESPOIR FILLES 1 0:41:48 05:59 10.01
64 1039 GODFROID NATHANAEL SENIOR H 32 0:41:48 05:59 10.01
65 1038 THEATE JUSTIN SENIOR H 33 0:41:49 06:00 10.01
66 1061 RINALDI VINCENT SENIOR H 34 0:43:27 06:14 9.63
67 1063 LA COLA GIOACHINO SENIOR H 35 0:43:28 06:14 9.63
68 1062 ROEBROECK YVES VETERAN 1 12 0:43:29 06:14 9.63
69 1079 LENTINI MARINE DAME 2 0:47:00 06:44 8.91
70 1080 LENTINI LEA DAME 3 0:47:00 06:44 8.91
71 1081 SPADONI MARCO SENIOR H 36 0:47:01 06:44 8.90
72 1056 PIETTE VALÈRE VETERAN 1 13 0:49:41 07:07 8.43
73 1055 PIETTE CYRIL ESPOIR GARÇON 6 0:49:41 07:07 8.43
74 1057 BEAURAIN PHILIPPE VÉTÉRAN 2 9 0:49:41 07:07 8.43
75 1017 ANTOINE ANAÏS AINÉE 2 1 0:50:44 07:16 8.25
76 1016 MATHONET AUDREY DAME 4 0:50:46 07:17 8.25
77 1015 CUYX SABRINA AINÉE 1 3 0:50:48 07:17 8.24